Date String (YYYY-MM-DD hh:mm:ss) UTC,Instrument flags,absolute air pressure of the measurement (hPa),sample flow rate (lpm),inlet stack bypass flow (lpm),air temperature of the measurement (°C),ambient temperature measured by the external sensor (°C),aerosol sample conditioner tube jacket temperature (°C),OPC LED temperature (°C),internal box temperature (°C),relative humidity of the measurement (%),span deviation,mass concentration of particles derived from Lorenz-Mie calculation of OPC scattering (μg/m³),mass concentration of particles derived from Lorenz-Mie calculation of OPC scattering (μg/m³),mass concentration of particles derived from Lorenz-Mie calculation of OPC scattering (μg/m³)
DateTimeUTC,F1_M11,P_M11,Q1_M11,Q2_M11,T1_M11,T2_M11,T3_M11,T4_M11,T5_M11,U1_M11,ZSPAN_M11,X2_M11,X0_M11,X1_M11
2024-03-23 20:00:00,SystemResetWarning,0819.0,5.00,000.00,023.6,023.1,000.0,032.0,025.5,18.3,0001.7,0008.45,0023.36,0006.71
2024-03-23 20:01:00,SystemResetWarning,0819.2,5.00,000.00,023.7,023.1,000.0,032.0,025.5,18.4,0001.6,0008.50,0022.90,0006.71
2024-03-23 20:02:00,SystemResetWarning,0819.0,4.98,000.00,023.7,023.1,000.0,032.0,025.5,18.2,0001.3,0008.54,0023.91,0006.71
2024-03-23 20:03:00,SystemResetWarning,0818.8,4.99,000.00,023.7,023.1,000.0,032.0,025.5,18.2,0001.5,0008.50,0024.96,0006.67
2024-03-23 20:04:00,SystemResetWarning,0818.8,5.01,000.00,023.7,023.2,000.0,032.0,025.5,18.2,0002.1,0008.40,0025.08,0006.61
2024-03-23 20:05:00,SystemResetWarning,0818.7,5.01,000.00,023.7,023.2,000.0,032.0,025.5,18.1,0002.1,0008.34,0025.35,0006.56
2024-03-23 20:06:00,SystemResetWarning,0818.7,4.99,000.00,023.7,023.2,000.0,032.1,025.5,17.9,0002.5,0008.34,0025.71,0006.53
2024-03-23 20:07:00,SystemResetWarning,0818.7,4.99,000.00,023.7,023.2,000.0,032.1,025.5,18.0,0002.6,0008.34,0025.11,0006.51
2024-03-23 20:08:00,SystemResetWarning,0818.7,5.00,000.00,023.7,023.2,000.0,032.1,025.5,17.9,0002.9,0008.32,0025.53,0006.50
2024-03-23 20:09:00,SystemResetWarning,0818.6,5.02,000.00,023.8,023.2,000.0,032.1,025.5,18.0,0002.8,0008.25,0024.99,0006.47
2024-03-23 20:10:00,SystemResetWarning,0818.6,4.99,000.00,023.8,023.2,000.0,032.1,025.5,18.5,0003.3,0008.13,0023.64,0006.43
2024-03-23 20:11:00,SystemResetWarning,0818.6,4.98,000.00,023.8,023.2,000.0,032.1,025.6,18.2,0003.2,0008.13,0022.46,0006.44
2024-03-23 20:12:00,SystemResetWarning,0818.5,5.00,000.00,023.8,023.2,000.0,032.1,025.6,18.1,0002.7,0008.16,0022.32,0006.46
2024-03-23 20:13:00,SystemResetWarning,0818.5,5.01,000.00,023.8,023.3,000.0,032.1,025.6,17.9,0003.2,0008.12,0022.52,0006.47
2024-03-23 20:14:00,SystemResetWarning,0818.5,4.99,000.00,023.8,023.2,000.0,032.1,025.6,17.9,0003.4,0008.09,0021.42,0006.50
2024-03-23 20:15:00,SystemResetWarning,0818.5,4.99,000.00,023.8,023.2,000.0,032.2,025.6,18.3,0003.0,0008.07,0021.03,0006.52
2024-03-23 20:16:00,SystemResetWarning,0818.5,4.99,000.00,023.8,023.2,000.0,032.2,025.6,17.9,0003.1,0008.08,0021.19,0006.53
2024-03-23 20:17:00,SystemResetWarning,0818.5,5.00,000.00,023.8,023.3,000.0,032.2,025.6,17.9,0002.8,0008.10,0021.22,0006.55
2024-03-23 20:18:00,SystemResetWarning,0818.4,5.01,000.00,023.9,023.3,000.0,032.2,025.6,18.2,0002.9,0008.09,0022.11,0006.55
2024-03-23 20:19:00,SystemResetWarning,0818.4,5.01,000.00,023.9,023.3,000.0,032.2,025.7,18.2,0003.0,0008.05,0022.54,0006.55
2024-03-23 20:20:00,SystemResetWarning,0818.4,4.99,000.00,023.9,023.3,000.0,032.2,025.7,17.8,0002.9,0008.06,0022.82,0006.55
2024-03-23 20:21:00,SystemResetWarning,0818.4,4.99,000.00,023.9,023.4,000.0,032.2,025.7,17.6,0002.0,0008.09,0023.78,0006.55
2024-03-23 20:22:00,SystemResetWarning,0818.4,5.01,000.00,023.9,023.4,000.0,032.2,025.7,17.5,0002.3,0008.00,0023.61,0006.52
2024-03-23 20:23:00,SystemResetWarning,0818.3,5.01,000.00,023.9,023.4,000.0,032.3,025.7,17.8,0002.7,0007.93,0022.89,0006.48
2024-03-23 20:24:00,SystemResetWarning,0818.3,5.00,000.00,024.0,023.4,000.0,032.3,025.8,17.6,0002.4,0007.91,0022.73,0006.43
2024-03-23 20:25:00,SystemResetWarning,0818.3,5.00,000.00,024.0,023.4,000.0,032.3,025.8,17.7,0001.7,0007.94,0023.74,0006.40
2024-03-23 20:26:00,SystemResetWarning,0818.3,4.99,000.00,024.0,023.5,000.0,032.3,025.9,17.8,0001.7,0008.00,0023.90,0006.40
2024-03-23 20:27:00,SystemResetWarning,0818.2,4.99,000.00,024.0,023.5,000.0,032.3,025.9,17.3,0001.6,0008.00,0022.93,0006.41
2024-03-23 20:28:00,SystemResetWarning,0818.2,5.00,000.00,024.0,023.5,000.0,032.3,025.9,17.5,0002.7,0007.94,0021.42,0006.39
2024-03-23 20:29:00,SystemResetWarning,0818.1,5.01,000.00,024.0,023.5,000.0,032.3,025.9,17.4,0003.5,0007.89,0021.72,0006.37
2024-03-23 20:30:00,SystemResetWarning,0818.1,5.01,000.00,024.1,023.5,000.0,032.4,025.9,17.3,0003.0,0007.89,0022.07,0006.35
2024-03-23 20:31:00,SystemResetWarning,0818.1,5.00,000.00,024.1,023.6,000.0,032.4,025.9,17.3,0002.6,0007.86,0021.59,0006.32
2024-03-23 20:32:00,SystemResetWarning,0818.1,5.00,000.00,024.1,023.6,000.0,032.4,026.0,17.3,0003.2,0007.81,0020.66,0006.31
2024-03-23 20:33:00,SystemResetWarning,0818.1,4.99,000.00,024.1,023.6,000.0,032.4,026.0,17.1,0002.1,0007.85,0022.00,0006.32
2024-03-23 20:34:00,SystemResetWarning,0818.1,5.00,000.00,024.1,023.6,000.0,032.4,026.0,17.0,0001.9,0007.87,0022.54,0006.32
2024-03-23 20:35:00,SystemResetWarning,0818.1,4.99,000.00,024.2,023.6,000.0,032.5,026.0,17.1,0001.7,0007.85,0022.94,0006.30
2024-03-23 20:36:00,SystemResetWarning,0818.0,5.01,000.00,024.2,023.7,000.0,032.5,026.0,17.0,0001.4,0007.81,0021.58,0006.27
2024-03-23 20:37:00,SystemResetWarning,0818.0,5.02,000.00,024.2,023.7,000.0,032.5,026.1,17.0,0001.8,0007.81,0021.66,0006.25
2024-03-23 20:38:00,SystemResetWarning,0818.0,4.99,000.00,024.2,023.7,000.0,032.5,026.1,17.1,0001.9,0007.77,0022.87,0006.22
2024-03-23 20:39:00,SystemResetWarning,0818.0,4.98,000.00,024.2,023.7,000.0,032.5,026.1,17.4,0000.9,0007.77,0023.55,0006.17
2024-03-23 20:40:00,SystemResetWarning,0818.0,5.00,000.00,024.2,023.7,000.0,032.5,026.1,17.4,0001.1,0007.74,0022.32,0006.14
2024-03-23 20:41:00,SystemResetWarning,0818.0,5.00,000.00,024.3,023.7,000.0,032.6,026.1,17.5,0002.0,0007.70,0021.19,0006.12
2024-03-23 20:42:00,SystemResetWarning,0818.0,5.00,000.00,024.3,023.8,000.0,032.6,026.1,17.4,0002.8,0007.69,0021.09,0006.10
2024-03-23 20:43:00,SystemResetWarning,0818.0,4.99,000.00,024.3,023.8,000.0,032.6,026.2,17.5,0003.0,0007.64,0020.49,0006.08
2024-03-23 20:44:00,SystemResetWarning,0818.0,5.00,000.00,024.3,023.8,000.0,032.6,026.2,17.7,0004.0,0007.53,0018.31,0006.03
2024-03-23 20:45:00,SystemResetWarning,0818.0,5.00,000.00,024.3,023.8,000.0,032.6,026.2,17.7,0004.3,0007.44,0017.82,0005.99
2024-03-23 20:46:00,SystemResetWarning,0818.0,5.00,000.00,024.3,023.8,000.0,032.6,026.2,17.7,0004.7,0007.40,0017.22,0005.97
2024-03-23 20:47:00,SystemResetWarning,0818.0,5.00,000.00,024.3,023.8,000.0,032.7,026.2,17.4,0005.0,0007.34,0016.92,0005.94
2024-03-23 20:48:00,SystemResetWarning,0818.0,5.00,000.00,024.4,023.8,000.0,032.7,026.2,17.4,0005.1,0007.24,0017.38,0005.91
2024-03-23 20:49:00,SystemResetWarning,0818.0,5.00,000.00,024.4,023.8,000.0,032.7,026.2,17.3,0005.0,0007.18,0016.41,0005.88
2024-03-23 20:50:00,SystemResetWarning,0818.0,5.00,000.00,024.4,023.8,000.0,032.7,026.3,17.7,0005.1,0007.11,0015.73,0005.86
2024-03-23 20:51:00,SystemResetWarning,0817.9,4.99,000.00,024.4,023.8,000.0,032.7,026.3,17.7,0005.1,0007.08,0015.60,0005.83
2024-03-23 20:52:00,SystemResetWarning,0818.0,4.99,000.00,024.4,023.8,000.0,032.7,026.3,17.6,0005.1,0007.06,0015.66,0005.77
2024-03-23 20:53:00,SystemResetWarning,0818.0,5.00,000.00,024.4,023.8,000.0,032.7,026.3,17.3,0005.2,0007.02,0015.08,0005.74
2024-03-23 20:54:00,SystemResetWarning,0817.9,5.00,000.00,024.4,023.9,000.0,032.8,026.3,17.0,0005.1,0006.98,0015.10,0005.70
2024-03-23 20:55:00,SystemResetWarning,0817.9,5.00,000.00,024.4,023.9,000.0,032.8,026.3,16.4,0005.1,0006.93,0015.88,0005.63
2024-03-23 20:56:00,SystemResetWarning,0817.9,5.01,000.00,024.5,023.9,000.0,032.8,026.3,16.3,0005.1,0006.83,0016.15,0005.54
2024-03-23 20:57:00,SystemResetWarning,0817.9,5.00,000.00,024.5,023.9,000.0,032.8,026.3,16.3,0004.3,0006.77,0016.41,0005.44
2024-03-23 20:58:00,SystemResetWarning,0817.9,5.00,000.00,024.5,023.9,000.0,032.8,026.3,16.2,0004.1,0006.69,0016.38,0005.34
2024-03-23 20:59:00,SystemResetWarning,0817.9,5.00,000.00,024.5,023.9,000.0,032.8,026.3,15.7,0003.6,0006.56,0015.26,0005.22
